x

Buoy B01 - Western Maine Shelf (44030) Wave Buoy

10:04 - Sat 19th Aug 2017 All times are EDT. -4 hours from GMT.

  • Sig Wave height 2.6ft
  • Peak Period 6s
  • Wind
    9mph, 9mph gusts
  • Sea Temp 63°f
  • Air Temp 64°f
  • Sea Pressure 1009.5mb
  • Buoy B01 - Western Maine Shelf
  • Buoy B01 - Western Maine Shelf

More Historic Weather Station data

Upgrade to MSW Pro to gain access to the past 30 days of data for over 8000 Wavebouys and Weather Stations around the globe.

Join

Comparision Forecast

View Surf forecast
   
sam. 08/19 10:04 2.5ft 6s 9 9 mph 1009.5mb 63f 64f
9:04 2.5ft 6s 7 7 mph 1009.2mb 63f 64f
8:04 2.5ft 6s 7 7 mph 1009mb 63f 63f
7:04 2.5ft 6s 7 9 mph 1008.7mb 63f 64f
6:04 2ft 6s 9 9 mph 1008.7mb 63f 65f
5:04 2.5ft 6s 11 13 mph 1008.4mb 64f 64f
4:04 2.5ft 6s 11 13 mph 1008.6mb 64f 65f
3:04 2.5ft 6s 9 11 mph 1009mb 64f 65f
2:04 2ft 5s 11 11 mph 1009.1mb 64f 64f
1:04 2.5ft 6s 7 7 mph 1009.5mb 64f 64f
12:04 3ft 6s 4 4 mph 1009.7mb 62f 65f
11:04 3ft 5s 2 2 mph 1009.6mb 62f 65f
10:04 3.5ft 6s 2 4 mph 1009.5mb 61f 64f
9:04 4ft 6s 7 9 mph 1009.3mb 61f 62f
8:04 4ft 6s 7 9 mph 1009.3mb 60f 62f
7:04 3.5ft 6s 9 9 mph 1009.3mb 61f 62f
6:04 3.5ft 6s 9 11 mph 1009mb 61f 62f
5:04 3.5ft 6s 9 11 mph 1008.8mb 62f 62f
4:04 3.5ft 6s 13 16 mph 1008.4mb 62f 62f
3:04 3.5ft 6s 11 13 mph 1008.8mb 62f 62f
2:04 3.5ft 5s 11 16 mph 1008.9mb 62f 62f
1:04 3ft 6s 9 11 mph 1009mb 62f 62f
12:04 3.5ft 5s 7 9 mph 1009.7mb 62f 63f
ven. 08/18 11:04 3.5ft 6s 11 18 mph 1009.5mb 62f 65f
10:04 4ft 6s 13 16 mph 1009mb 61f 65f
9:04 4ft 5s 16 16 mph 1009.3mb 61f 65f
8:04 3.5ft 5s 9 9 mph 1009.7mb 61f 65f
7:04 3.5ft 5s 16 20 mph 1009.9mb 61f 65f
6:04 3.5ft 5s 11 13 mph 1010.3mb 62f 65f
5:04 3.5ft 4s 16 18 mph 1010.3mb 62f 65f
4:04 3.5ft 4s 16 20 mph 1011.1mb 62f 65f
3:04 3ft 4s 18 20 mph 1011.6mb 62f 66f
2:04 2ft 3s 18 25 mph 1012mb 62f 65f
1:04 2ft 8s 20 22 mph 1012.7mb 63f 65f
12:04 1.6ft 8s 9 11 mph 1014.1mb 63f 65f
10:04 1.6ft 8s 2 4 mph 1014.2mb 64f 65f
9:04 1.6ft 8s 7 7 mph 1014.4mb 64f 65f
8:04 1.6ft 8s 4 7 mph 1014.7mb 64f 65f
7:04 1.6ft 11s 4 4 mph 1014.5mb 64f 64f
6:04 2ft 11s 7 9 mph 1014.4mb 64f 64f
5:04 2ft 8s 7 7 mph 1014.5mb 64f 64f
4:04 2ft 8s 4 7 mph 1015mb 63f 64f
3:04 2ft 11s 4 4 mph 1015.3mb 63f 64f
2:04 2.5ft 8s 2 4 mph 1015.7mb 63f 64f
1:04 2ft 8s 2 2 mph 1015.8mb 63f 64f
12:04 2.5ft 11s 4 4 mph 1015.9mb 63f 65f
jeu. 08/17 11:04 2ft 8s 4 7 mph 1015.6mb 63f 66f
10:04 2.5ft 8s 4 7 mph 1015.4mb 64f 68f
9:04 2ft 8s 7 9 mph 1015.2mb 64f 68f
7:04  -   -  4 7 mph 1014.3mb 64f 68f
6:04 2.5ft 8s 4 7 mph 1014.1mb 65f 70f
5:04 3ft 11s 2 4 mph 1014mb 65f 72f
4:04 2.5ft 8s 4 7 mph 1014.2mb 65f 71f
3:04  -   -  7 9 mph 1014.6mb 65f 70f
2:04 3.5ft 11s 9 13 mph 1015mb 65f 71f
1:04 2.5ft 11s 7 9 mph 1015.8mb 64f 67f
12:04 3ft 11s 11 13 mph 1016mb 64f 66f
11:04 3.5ft 11s 11 13 mph 1016.8mb 64f 64f
10:04 2.5ft 11s 13 16 mph 1017.1mb 63f 62f
9:04 2.5ft 11s 9 11 mph 1017.2mb 63f 61f
8:04  -   -  11 11 mph 1017.2mb 63f 61f
7:04 2.5ft 11s 9 11 mph 1016.9mb 63f 61f
6:04 2.5ft 11s 7 9 mph 1016.6mb 64f 62f
5:04 2ft 8s 7 9 mph 1016.3mb 64f 62f
4:04 2.5ft 11s 9 11 mph 1016.5mb 64f 62f
3:04 3ft 16s 9 9 mph 1016.3mb 64f 63f
2:04  -   -  7 9 mph 1016.6mb 64f 63f
1:04 3ft 11s 4 7 mph 1016.3mb 64f 65f
12:04 2.5ft 11s 4 7 mph 1016.4mb 64f 65f
mer. 08/16 11:04 3ft 11s 9 13 mph 1016.1mb 64f 66f
10:04 2.5ft 11s 11 13 mph 1015.6mb 64f 67f
9:04 2.5ft 11s 9 11 mph 1015mb 64f 67f
8:04 2.5ft 11s 11 11 mph 1014.1mb 65f 68f
7:04 1.6ft 6s 13 13 mph 1013.1mb 65f 70f
6:04 3ft 11s 16 18 mph 1012.7mb 65f 72f
5:04 2.5ft 6s 16 18 mph 1012.2mb 65f 71f
4:04 2ft 3s 13 16 mph 1012.3mb 65f 71f
3:04 1ft 4s 18 20 mph 1012.3mb 66f 73f
2:04 2ft 8s 9 9 mph 1012.7mb 67f 71f
1:04 2ft 8s 4 4 mph 1012.7mb 65f 73f
12:04 2.5ft 8s 7 9 mph 1012.9mb 65f 71f
11:04 2.5ft 8s 4 7 mph 1013mb 65f 69f
10:04 2.5ft 8s 2 2 mph 1013mb 64f 70f
9:04 2.5ft 8s 2 4 mph 1012.6mb 64f 67f
8:04 2.5ft 5s 7 9 mph 1012.3mb 64f 66f
7:04 2.5ft 8s 7 7 mph 1012mb 64f 65f
6:04 2.5ft 6s 7 7 mph 1011.4mb 64f 64f
5:04 2.5ft 8s 4 7 mph 1010.9mb 64f 64f
4:04 2.5ft 6s 9 9 mph 1010.9mb 64f 64f